| time (UTC) | temp F | wind direction | speed MPH | gust MPH | rain 1hr in | rain 24hr in | rain mn in | humidity % | barometer mb |
| 20260902162920 | 62 | 152 | 0.0 | 9.0 | 0.00 | 0.00 | 0.00 | 82 | 1004.9 |
| 20260902162419 | 62 | 145 | 0.0 | 8.0 | 0.00 | 0.00 | 0.00 | 85 | 1004.9 |
| 20260902161925 | 62 | 145 | 0.0 | 6.0 | 0.00 | 0.00 | 0.00 | 84 | 1005.1 |
| 20260902161420 | 62 | 146 | 0.0 | 15.0 | 0.00 | 0.00 | 0.00 | 85 | 1004.9 |
| 20260902160921 | 61 | 142 | 0.0 | 15.0 | 0.00 | 0.00 | 0.00 | 81 | 1005.1 |
| 20260902160420 | 61 | 166 | 1.0 | 4.0 | 0.00 | 0.00 | 0.00 | 86 | 1005.1 |
| 20260902155920 | 61 | 156 | 0.0 | 4.0 | 0.00 | 0.00 | 0.00 | 88 | 1004.8 |
| 20260902155419 | 61 | 143 | 0.0 | 8.0 | 0.00 | 0.00 | 0.00 | 87 | 1005.2 |
| 20260902154921 | 60 | 132 | 0.0 | 8.0 | 0.00 | 0.00 | 0.00 | 90 | 1005.2 |
| 20260902154421 | 60 | 132 | 0.0 | 0.0 | 0.00 | 0.00 | 0.00 | 92 | 1005.3 |
| 20260902153919 | 59 | 132 | 0.0 | 0.0 | 0.00 | 0.00 | 0.00 | 92 | 1005.3 |
| 20260902153421 | 59 | 132 | 0.0 | 0.0 | 0.00 | 0.00 | 0.00 | 92 | 1005.4 |
| 20260902152922 | 59 | 132 | 0.0 | 0.0 | 0.00 | 0.00 | 0.00 | 93 | 1005.4 |
| 20260902152421 | 58 | 132 | 0.0 | 9.0 | 0.00 | 0.00 | 0.00 | 94 | 1005.4 |
| 20260902151920 | 58 | 132 | 0.0 | 9.0 | 0.00 | 0.00 | 0.00 | 94 | 1005.4 |
| 20260902151420 | 58 | 132 | 0.0 | 0.0 | 0.00 | 0.00 | 0.00 | 95 | 1005.8 |
| 20260902150920 | 58 | 132 | 0.0 | 0.0 | 0.00 | 0.00 | 0.00 | 95 | 1005.8 |
| 20260902150420 | 58 | 132 | 0.0 | 0.0 | 0.00 | 0.00 | 0.00 | 96 | 1005.8 |
| 20260902145921 | 58 | 132 | 0.0 | 0.0 | 0.00 | 0.00 | 0.00 | 96 | 1005.7 |
| 20260902145419 | 58 | 132 | 0.0 | 0.0 | 0.00 | 0.00 | 0.00 | 96 | 1006.0 |
| 20260902144920 | 58 | 132 | 0.0 | 0.0 | 0.00 | 0.00 | 0.00 | 96 | 1006.0 |
| 20260902144419 | 58 | 132 | 0.0 | 0.0 | 0.00 | 0.00 | 0.00 | 96 | 1005.9 |
| 20260902144201 | 58 | 133 | 0.0 | 0.0 | 0.00 | 0.00 | 0.00 | 97 | 1006.0 |
| 20260902143420 | 58 | 133 | 0.0 | 0.0 | 0.00 | 0.00 | 0.00 | 97 | 1006.3 |
| 20260902142920 | 58 | 133 | 0.0 | 0.0 | 0.00 | 0.00 | 0.00 | 97 | 1006.0 |
| 20260902142419 | 57 | 133 | 0.0 | 0.0 | 0.00 | 0.00 | 0.00 | 97 | 1006.1 |
| 20260902141922 | 57 | 133 | 0.0 | 0.0 | 0.00 | 0.00 | 0.00 | 97 | 1006.1 |
| 20260902141724 | 57 | 133 | 0.0 | 0.0 | 0.00 | 0.00 | 0.00 | 97 | 1006.1 |
| 20260902140920 | 57 | 133 | 0.0 | 0.0 | 0.00 | 0.00 | 0.00 | 96 | 1006.2 |
| 20260902140419 | 57 | 133 | 0.0 | 9.0 | 0.00 | 0.00 | 0.00 | 96 | 1006.4 |
| 20260902140211 | 57 | 133 | 0.0 | 9.0 | 0.00 | 0.00 | 0.00 | 96 | 1006.1 |
| 20260902135426 | 57 | 133 | 0.0 | 0.0 | 0.00 | 0.00 | 0.00 | 96 | 1006.0 |
| 20260902134919 | 57 | 133 | 0.0 | 0.0 | 0.00 | 0.00 | 0.00 | 95 | 1006.2 |
| 20260902134419 | 58 | 133 | 0.0 | 0.0 | 0.00 | 0.00 | 0.00 | 95 | 1006.1 |
| 20260902133919 | 58 | 133 | 0.0 | 0.0 | 0.00 | 0.00 | 0.00 | 94 | 1006.2 |
| 20260902133419 | 58 | 133 | 0.0 | 0.0 | 0.00 | 0.00 | 0.00 | 93 | 1006.0 |
| 20260902132920 | 58 | 133 | 0.0 | 0.0 | 0.00 | 0.00 | 0.00 | 93 | 1006.0 |
| 20260902132418 | 59 | 133 | 0.0 | 0.0 | 0.00 | 0.00 | 0.00 | 92 | 1006.1 |
| 20260902132015 | 59 | 133 | 0.0 | 2.0 | 0.00 | 0.00 | 0.00 | 90 | 1006.1 |
| 20260902131953 | 59 | 133 | 0.0 | 2.0 | 0.00 | 0.00 | 0.00 | 91 | 1006.2 |
| 20260902130920 | 59 | 133 | 0.0 | 0.0 | 0.00 | 0.00 | 0.00 | 89 | 1006.5 |
| 20260902130419 | 59 | 133 | 0.0 | 0.0 | 0.00 | 0.00 | 0.00 | 90 | 1006.3 |
| 20260902125918 | 59 | 133 | 0.0 | 8.0 | 0.00 | 0.00 | 0.00 | 89 | 1006.4 |
| 20260902125418 | 59 | 133 | 0.0 | 8.0 | 0.00 | 0.00 | 0.00 | 89 | 1006.4 |
| 20260902124919 | 59 | 133 | 0.0 | 1.0 | 0.00 | 0.00 | 0.00 | 90 | 1006.3 |
| 20260902124419 | 59 | 133 | 0.0 | 1.0 | 0.00 | 0.00 | 0.00 | 90 | 1006.5 |
| 20260902123921 | 59 | 133 | 0.0 | 0.0 | 0.00 | 0.00 | 0.00 | 91 | 1006.5 |
| 20260902123500 | 59 | 133 | 0.0 | 0.0 | 0.00 | 0.00 | 0.00 | 91 | 1006.6 |
| 20260902123445 | 59 | 133 | 0.0 | 0.0 | 0.00 | 0.00 | 0.00 | 91 | 1006.5 |
| 20260902122419 | 59 | 133 | 0.0 | 16.0 | 0.00 | 0.00 | 0.00 | 90 | 1006.6 |
| 20260902121919 | 60 | 133 | 0.0 | 16.0 | 0.00 | 0.00 | 0.00 | 90 | 1006.5 |
| 20260902121714 | 60 | 133 | 0.0 | 0.0 | 0.00 | 0.00 | 0.00 | 90 | 1006.5 |
| 20260902120919 | 60 | 133 | 0.0 | 4.0 | 0.00 | 0.00 | 0.00 | 90 | 1006.6 |
| 20260902120439 | 60 | 133 | 0.0 | 4.0 | 0.00 | 0.00 | 0.00 | 91 | 1006.6 |
| 20260902115920 | 60 | 133 | 0.0 | 2.0 | 0.00 | 0.00 | 0.00 | 90 | 1006.5 |
| 20260902115419 | 60 | 133 | 0.0 | 0.0 | 0.00 | 0.00 | 0.00 | 90 | 1006.6 |
| 20260902114920 | 60 | 133 | 0.0 | 8.0 | 0.00 | 0.00 | 0.00 | 90 | 1006.6 |
| 20260902114419 | 60 | 133 | 0.0 | 13.0 | 0.00 | 0.00 | 0.00 | 90 | 1006.8 |
| 20260902114213 | 60 | 134 | 0.0 | 13.0 | 0.00 | 0.00 | 0.00 | 90 | 1006.7 |
| 20260902113419 | 60 | 134 | 0.0 | 6.0 | 0.00 | 0.00 | 0.00 | 90 | 1006.7 |
| 20260902113050 | 60 | 133 | 0.0 | 9.0 | 0.00 | 0.00 | 0.00 | 91 | 1006.9 |
| 20260902113019 | 60 | 134 | 0.0 | 0.0 | 0.00 | 0.00 | 0.00 | 90 | 1006.8 |
| 20260902111920 | 60 | 133 | 0.0 | 11.0 | 0.00 | 0.00 | 0.00 | 90 | 1006.9 |
| 20260902111421 | 60 | 134 | 0.0 | 11.0 | 0.00 | 0.00 | 0.00 | 90 | 1006.8 |
| 20260902110924 | 60 | 133 | 0.0 | 8.0 | 0.00 | 0.00 | 0.00 | 90 | 1006.7 |
| 20260902110423 | 60 | 134 | 0.0 | 13.0 | 0.00 | 0.00 | 0.00 | 90 | 1007.1 |
| 20260902105919 | 60 | 133 | 0.0 | 13.0 | 0.00 | 0.00 | 0.00 | 90 | 1007.1 |
| 20260902105425 | 60 | 134 | 0.0 | 0.0 | 0.00 | 0.00 | 0.00 | 90 | 1007.2 |
| 20260902104920 | 60 | 133 | 0.0 | 0.0 | 0.00 | 0.00 | 0.00 | 89 | 1006.9 |
| 20260902104420 | 60 | 134 | 0.0 | 0.0 | 0.00 | 0.00 | 0.00 | 89 | 1007.1 |
| 20260902103919 | 60 | 134 | 0.0 | 0.0 | 0.00 | 0.00 | 0.00 | 90 | 1007.2 |
| 20260902103420 | 60 | 134 | 0.0 | 0.0 | 0.00 | 0.00 | 0.00 | 90 | 1007.2 |
| 20260902102922 | 60 | 134 | 0.0 | 0.0 | 0.00 | 0.00 | 0.00 | 90 | 1007.1 |
| 20260902102419 | 59 | 135 | 0.0 | 0.0 | 0.00 | 0.00 | 0.00 | 91 | 1007.3 |
| 20260902101941 | 59 | 135 | 0.0 | 0.0 | 0.00 | 0.00 | 0.00 | 92 | 1007.4 |
| 20260902101419 | 59 | 134 | 0.0 | 0.0 | 0.00 | 0.00 | 0.00 | 92 | 1007.2 |
| 20260902100918 | 60 | 134 | 0.0 | 0.0 | 0.00 | 0.00 | 0.00 | 91 | 1007.2 |
| 20260902100420 | 60 | 134 | 0.0 | 10.0 | 0.00 | 0.00 | 0.00 | 91 | 1007.3 |
| 20260902100210 | 60 | 131 | 0.0 | 10.0 | 0.00 | 0.00 | 0.00 | 91 | 1007.3 |
| 20260902095419 | 60 | 120 | 1.0 | 6.0 | 0.00 | 0.00 | 0.00 | 89 | 1007.2 |
| 20260902094919 | 60 | 136 | 0.0 | 3.0 | 0.00 | 0.00 | 0.00 | 88 | 1007.3 |
| 20260902094420 | 60 | 136 | 0.0 | 0.0 | 0.00 | 0.00 | 0.00 | 89 | 1007.3 |
| 20260902093920 | 60 | 136 | 0.0 | 0.0 | 0.00 | 0.00 | 0.00 | 89 | 1007.3 |
| 20260902093725 | 60 | 136 | 0.0 | 0.0 | 0.00 | 0.00 | 0.00 | 89 | 1007.2 |
| 20260902092919 | 60 | 136 | 0.0 | 0.0 | 0.00 | 0.00 | 0.00 | 89 | 1007.2 |
| 20260902092420 | 60 | 136 | 0.0 | 0.0 | 0.00 | 0.00 | 0.00 | 89 | 1007.2 |
| 20260902092217 | 60 | 136 | 0.0 | 0.0 | 0.00 | 0.00 | 0.00 | 89 | 1007.4 |
| 20260902091419 | 60 | 136 | 0.0 | 0.0 | 0.00 | 0.00 | 0.00 | 89 | 1007.3 |
| 20260902091204 | 60 | 136 | 0.0 | 0.0 | 0.00 | 0.00 | 0.00 | 89 | 1007.5 |
| 20260902090420 | 60 | 136 | 0.0 | 0.0 | 0.00 | 0.00 | 0.00 | 89 | 1007.6 |
| 20260902085920 | 60 | 136 | 0.0 | 0.0 | 0.00 | 0.00 | 0.00 | 89 | 1007.8 |
| 20260902085420 | 60 | 137 | 0.0 | 0.0 | 0.00 | 0.00 | 0.00 | 89 | 1007.7 |
| 20260902084919 | 60 | 137 | 0.0 | 0.0 | 0.00 | 0.00 | 0.00 | 89 | 1007.9 |
| 20260902084420 | 60 | 137 | 0.0 | 0.0 | 0.00 | 0.00 | 0.00 | 89 | 1007.9 |
| 20260902084209 | 60 | 138 | 0.0 | 0.0 | 0.00 | 0.00 | 0.00 | 89 | 1007.9 |
| 20260902083419 | 60 | 139 | 0.0 | 0.0 | 0.00 | 0.00 | 0.00 | 89 | 1007.8 |
| 20260902083210 | 60 | 139 | 0.0 | 0.0 | 0.00 | 0.00 | 0.00 | 89 | 1007.9 |
| 20260902082420 | 60 | 139 | 0.0 | 0.0 | 0.00 | 0.00 | 0.00 | 88 | 1007.8 |
| 20260902081919 | 60 | 138 | 0.0 | 0.0 | 0.00 | 0.00 | 0.00 | 88 | 1008.1 |
| 20260902081422 | 60 | 141 | 0.0 | 0.0 | 0.00 | 0.00 | 0.00 | 88 | 1008.0 |
| 20260902080919 | 59 | 141 | 0.0 | 0.0 | 0.00 | 0.00 | 0.00 | 87 | 1007.9 |
| 20260902080420 | 59 | 141 | 0.0 | 0.0 | 0.00 | 0.00 | 0.00 | 87 | 1008.2 |
| 20260902075918 | 59 | 141 | 0.0 | 0.0 | 0.00 | 0.00 | 0.00 | 86 | 1008.1 |
| 20260902075710 | 59 | 141 | 0.0 | 0.0 | 0.00 | 0.00 | 0.00 | 86 | 1008.0 |
| 20260902074919 | 60 | 141 | 0.0 | 0.0 | 0.00 | 0.00 | 0.00 | 86 | 1008.2 |
| 20260902074419 | 60 | 130 | 0.0 | 0.0 | 0.00 | 0.00 | 0.00 | 85 | 1008.1 |
| 20260902073919 | 60 | 141 | 0.0 | 0.0 | 0.00 | 0.00 | 0.00 | 84 | 1007.9 |
| 20260902073715 | 60 | 141 | 0.0 | 2.0 | 0.00 | 0.00 | 0.00 | 82 | 1008.1 |
| 20260902072919 | 60 | 145 | 0.0 | 3.0 | 0.00 | 0.00 | 0.00 | 81 | 1008.1 |
| 20260902072420 | 60 | 142 | 0.0 | 3.0 | 0.00 | 0.00 | 0.00 | 82 | 1007.9 |
| 20260902071919 | 60 | 146 | 0.0 | 6.0 | 0.00 | 0.00 | 0.00 | 85 | 1008.0 |
| 20260902071420 | 60 | 142 | 0.0 | 6.0 | 0.00 | 0.00 | 0.00 | 84 | 1008.1 |
| 20260902070919 | 59 | 134 | 1.0 | 4.0 | 0.00 | 0.00 | 0.00 | 88 | 1008.2 |
| 20260902070420 | 59 | 138 | 0.0 | 2.0 | 0.00 | 0.00 | 0.00 | 91 | 1008.2 |
| 20260902065919 | 59 | 138 | 0.0 | 7.0 | 0.00 | 0.00 | 0.00 | 91 | 1008.1 |
| 20260902065516 | 60 | 138 | 0.0 | 0.0 | 0.00 | 0.00 | 0.00 | 90 | 1008.3 |
| 20260902065450 | 59 | 138 | 2.0 | 7.0 | 0.00 | 0.00 | 0.00 | 91 | 1008.4 |
| 20260902064420 | 60 | 139 | 0.0 | 10.0 | 0.00 | 0.00 | 0.00 | 90 | 1008.3 |
| 20260902063920 | 60 | 141 | 0.0 | 10.0 | 0.00 | 0.00 | 0.00 | 89 | 1008.3 |
| 20260902063414 | 60 | 145 | 0.0 | 11.0 | 0.00 | 0.00 | 0.00 | 90 | 1008.4 |
| 20260902062915 | 60 | 145 | 0.0 | 11.0 | 0.00 | 0.00 | 0.00 | 90 | 1008.2 |
| 20260902062418 | 60 | 145 | 0.0 | 0.0 | 0.00 | 0.00 | 0.00 | 90 | 1008.1 |
| 20260902061908 | 60 | 146 | 0.0 | 0.0 | 0.00 | 0.00 | 0.00 | 89 | 1008.3 |
| 20260902061703 | 60 | 152 | 0.0 | 0.0 | 0.00 | 0.00 | 0.00 | 89 | 1008.1 |
| 20260902061003 | 60 | 136 | 0.0 | 9.0 | 0.00 | 0.00 | 0.00 | 89 | 1008.2 |
| 20260902060948 | 60 | 142 | 0.0 | 9.0 | 0.00 | 0.00 | 0.00 | 89 | 1008.1 |
| 20260902055908 | 60 | 142 | 0.0 | 0.0 | 0.00 | 0.00 | 0.00 | 89 | 1008.2 |
| 20260902055410 | 60 | 139 | 0.0 | 0.0 | 0.00 | 0.00 | 0.00 | 89 | 1008.2 |
| 20260902054909 | 60 | 142 | 0.0 | 0.0 | 0.00 | 0.00 | 0.00 | 89 | 1008.6 |
| 20260902054408 | 60 | 142 | 0.0 | 33.0 | 0.00 | 0.00 | 0.00 | 88 | 1008.5 |
| 20260902053908 | 61 | 142 | 0.0 | 33.0 | 0.00 | 0.00 | 0.00 | 88 | 1008.5 |
| 20260902053410 | 61 | 137 | 1.0 | 9.0 | 0.00 | 0.00 | 0.00 | 87 | 1008.5 |
| 20260902052908 | 61 | 139 | 0.0 | 9.0 | 0.00 | 0.00 | 0.00 | 87 | 1008.4 |
| 20260902052408 | 61 | 140 | 0.0 | 15.0 | 0.00 | 0.00 | 0.00 | 87 | 1008.4 |
| 20260902051910 | 61 | 131 | 0.0 | 15.0 | 0.00 | 0.00 | 0.00 | 86 | 1008.5 |
| 20260902051410 | 61 | 140 | 0.0 | 0.0 | 0.00 | 0.00 | 0.00 | 85 | 1008.4 |
| 20260902050909 | 62 | 141 | 0.0 | 0.0 | 0.00 | 0.00 | 0.00 | 84 | 1008.1 |
| 20260902050410 | 62 | 141 | 0.0 | 0.0 | 0.00 | 0.00 | 0.00 | 84 | 1008.4 |
| 20260902045908 | 62 | 134 | 0.0 | 1.0 | 0.00 | 0.00 | 0.00 | 84 | 1008.5 |
| 20260902045409 | 62 | 140 | 0.0 | 6.0 | 0.00 | 0.00 | 0.00 | 83 | 1008.6 |
| 20260902044909 | 62 | 144 | 0.0 | 6.0 | 0.00 | 0.00 | 0.00 | 83 | 1008.4 |
| 20260902044410 | 62 | 131 | 0.0 | 6.0 | 0.00 | 0.00 | 0.00 | 82 | 1008.6 |
| 20260902043908 | 62 | 135 | 0.0 | 0.0 | 0.00 | 0.00 | 0.00 | 82 | 1008.5 |
| 20260902043410 | 63 | 143 | 0.0 | 9.0 | 0.00 | 0.00 | 0.00 | 81 | 1008.5 |
| 20260902042908 | 63 | 136 | 0.0 | 9.0 | 0.00 | 0.00 | 0.00 | 80 | 1008.6 |
| 20260902042404 | 63 | 124 | 1.0 | 11.0 | 0.00 | 0.00 | 0.00 | 80 | 1008.6 |
| 20260902041904 | 63 | 137 | 0.0 | 11.0 | 0.00 | 0.00 | 0.00 | 79 | 1008.3 |
| 20260902041417 | 63 | 139 | 0.0 | 11.0 | 0.00 | 0.00 | 0.00 | 79 | 1008.4 |
| 20260902040903 | 63 | 140 | 1.0 | 8.0 | 0.00 | 0.00 | 0.00 | 78 | 1008.5 |
| 20260902040403 | 64 | 157 | 0.0 | 8.0 | 0.00 | 0.00 | 0.00 | 78 | 1008.5 |
| 20260902035905 | 64 | 152 | 0.0 | 8.0 | 0.00 | 0.00 | 0.00 | 78 | 1008.3 |
| 20260902035404 | 64 | 154 | 0.0 | 8.0 | 0.00 | 0.00 | 0.00 | 77 | 1008.4 |
| 20260902034904 | 64 | 150 | 0.0 | 15.0 | 0.00 | 0.00 | 0.00 | 78 | 1008.5 |
| 20260902034705 | 64 | 142 | 0.0 | 15.0 | 0.00 | 0.00 | 0.00 | 79 | 1008.3 |
| 20260902033904 | 64 | 142 | 0.0 | 4.0 | 0.00 | 0.00 | 0.00 | 79 | 1008.4 |
| 20260902033652 | 64 | 146 | 0.0 | 6.0 | 0.00 | 0.00 | 0.00 | 80 | 1008.1 |
| 20260902032904 | 64 | 148 | 0.0 | 10.0 | 0.00 | 0.00 | 0.00 | 78 | 1008.0 |
| 20260902032404 | 64 | 149 | 0.0 | 10.0 | 0.00 | 0.00 | 0.00 | 77 | 1008.0 |
| 20260902031907 | 64 | 127 | 0.0 | 18.0 | 0.00 | 0.00 | 0.00 | 77 | 1008.0 |
| 20260902031733 | 64 | 156 | 2.0 | 18.0 | 0.00 | 0.00 | 0.00 | 76 | 1008.1 |
| 20260902030858 | 64 | 153 | 0.0 | 16.0 | 0.00 | 0.00 | 0.00 | 76 | 1008.2 |
| 20260902030359 | 64 | 145 | 0.0 | 9.0 | 0.00 | 0.00 | 0.00 | 76 | 1008.0 |
| 20260902025857 | 64 | 141 | 0.0 | 9.0 | 0.00 | 0.00 | 0.00 | 76 | 1008.3 |
| 20260902025355 | 65 | 153 | 0.0 | 13.0 | 0.00 | 0.00 | 0.00 | 76 | 1008.1 |
| 20260902024851 | 65 | 147 | 0.0 | 13.0 | 0.00 | 0.00 | 0.00 | 75 | 1007.9 |
| 20260902024709 | 65 | 144 | 0.0 | 3.0 | 0.00 | 0.00 | 0.00 | 75 | 1007.7 |
| 20260902023848 | 65 | 147 | 0.0 | 3.0 | 0.00 | 0.00 | 0.00 | 75 | 1008.0 |
| 20260902023637 | 65 | 154 | 0.0 | 4.0 | 0.00 | 0.00 | 0.00 | 76 | 1008.0 |
| 20260902022947 | 65 | 151 | 0.0 | 8.0 | 0.00 | 0.00 | 0.00 | 76 | 1007.9 |
| 20260902022922 | 65 | 152 | 1.0 | 7.0 | 0.00 | 0.00 | 0.00 | 75 | 1007.9 |
| 20260902021838 | 65 | 147 | 0.0 | 9.0 | 0.00 | 0.00 | 0.00 | 76 | 1007.9 |
| 20260902021339 | 65 | 128 | 1.0 | 9.0 | 0.00 | 0.00 | 0.00 | 75 | 1007.8 |
| 20260902020838 | 65 | 131 | 0.0 | 7.0 | 0.00 | 0.00 | 0.00 | 75 | 1007.9 |
| 20260902020341 | 65 | 136 | 0.0 | 7.0 | 0.00 | 0.00 | 0.00 | 76 | 1007.9 |
| 20260902015838 | 65 | 155 | 0.0 | 8.0 | 0.00 | 0.00 | 0.00 | 75 | 1008.0 |
| 20260902015338 | 65 | 143 | 1.0 | 8.0 | 0.00 | 0.00 | 0.00 | 75 | 1007.9 |
| 20260902014838 | 65 | 137 | 0.0 | 13.0 | 0.00 | 0.00 | 0.00 | 75 | 1008.0 |
| 20260902014338 | 66 | 132 | 0.0 | 13.0 | 0.00 | 0.00 | 0.00 | 74 | 1008.0 |
| 20260902013838 | 66 | 159 | 1.0 | 8.0 | 0.00 | 0.00 | 0.00 | 74 | 1007.9 |
| 20260902013338 | 66 | 143 | 1.0 | 7.0 | 0.00 | 0.00 | 0.00 | 73 | 1008.0 |
| 20260902012839 | 66 | 149 | 0.0 | 6.0 | 0.00 | 0.00 | 0.00 | 73 | 1007.8 |
| 20260902012338 | 66 | 130 | 0.0 | 7.0 | 0.00 | 0.00 | 0.00 | 72 | 1007.9 |
| 20260902011838 | 67 | 158 | 0.0 | 7.0 | 0.00 | 0.00 | 0.00 | 72 | 1008.0 |
| 20260902011338 | 67 | 143 | 1.0 | 6.0 | 0.00 | 0.00 | 0.00 | 72 | 1007.9 |
| 20260902011127 | 67 | 140 | 0.0 | 6.0 | 0.00 | 0.00 | 0.00 | 72 | 1008.1 |
| 20260902010633 | 67 | 129 | 0.0 | 7.0 | 0.00 | 0.00 | 0.00 | 71 | 1007.9 |
| 20260902010231 | 67 | 130 | 0.0 | 7.0 | 0.00 | 0.00 | 0.00 | 72 | 1007.8 |
| 20260902005338 | 67 | 127 | 0.0 | 6.0 | 0.00 | 0.00 | 0.00 | 72 | 1007.9 |
| 20260902005128 | 67 | 157 | 0.0 | 3.0 | 0.00 | 0.00 | 0.00 | 72 | 1007.9 |
| 20260902004637 | 67 | 143 | 0.0 | 7.0 | 0.00 | 0.00 | 0.00 | 72 | 1007.9 |
| 20260902003837 | 67 | 161 | 0.0 | 11.0 | 0.00 | 0.00 | 0.00 | 72 | 1007.8 |
| 20260902003339 | 67 | 145 | 0.0 | 17.0 | 0.00 | 0.00 | 0.00 | 71 | 1007.8 |
| 20260902002839 | 67 | 132 | 0.0 | 17.0 | 0.00 | 0.00 | 0.00 | 71 | 1007.7 |
| 20260902002338 | 67 | 130 | 0.0 | 7.0 | 0.00 | 0.00 | 0.00 | 71 | 1007.9 |
| 20260902001837 | 67 | 153 | 0.0 | 9.0 | 0.00 | 0.00 | 0.00 | 71 | 1007.6 |
| 20260902001344 | 67 | 154 | 0.0 | 9.0 | 0.00 | 0.00 | 0.00 | 73 | 1007.9 |
| 20260902000838 | 67 | 149 | 0.0 | 8.0 | 0.00 | 0.00 | 0.00 | 72 | 1007.8 |
| 20260902000701 | 67 | 144 | 0.0 | 2.0 | 0.00 | 0.00 | 0.00 | 71 | 1008.1 |
| 20260901235844 | 67 | 165 | 0.0 | 2.0 | 0.00 | 0.00 | 0.00 | 71 | 1008.0 |
| 20260901235635 | 67 | 141 | 1.0 | 11.0 | 0.00 | 0.00 | 0.00 | 71 | 1007.8 |
| 20260901234840 | 66 | 159 | 1.0 | 11.0 | 0.00 | 0.00 | 0.00 | 72 | 1007.7 |
| 20260901234341 | 66 | 122 | 0.0 | 7.0 | 0.00 | 0.00 | 0.00 | 76 | 1007.9 |
| 20260901233844 | 67 | 141 | 0.0 | 6.0 | 0.00 | 0.00 | 0.00 | 73 | 1007.7 |
| 20260901233344 | 67 | 137 | 1.0 | 11.0 | 0.00 | 0.00 | 0.00 | 73 | 1007.8 |
| 20260901232853 | 67 | 158 | 0.0 | 11.0 | 0.00 | 0.00 | 0.00 | 73 | 1007.8 |
| 20260901232349 | 67 | 155 | 0.0 | 8.0 | 0.00 | 0.00 | 0.00 | 73 | 1007.8 |
| 20260901232123 | 67 | 129 | 1.0 | 8.0 | 0.00 | 0.00 | 0.00 | 72 | 1007.9 |
| 20260901231354 | 67 | 145 | 0.0 | 7.0 | 0.00 | 0.00 | 0.00 | 73 | 1008.0 |
| 20260901230854 | 67 | 132 | 0.0 | 9.0 | 0.00 | 0.00 | 0.00 | 73 | 1008.1 |
| 20260901230341 | 67 | 126 | 0.0 | 9.0 | 0.00 | 0.00 | 0.00 | 73 | 1007.8 |
| 20260901225840 | 67 | 142 | 0.0 | 8.0 | 0.00 | 0.00 | 0.00 | 72 | 1008.0 |
| 20260901225340 | 67 | 143 | 1.0 | 8.0 | 0.00 | 0.00 | 0.00 | 73 | 1008.0 |
| 20260901224842 | 67 | 153 | 0.0 | 8.0 | 0.00 | 0.00 | 0.00 | 72 | 1007.9 |
| 20260901224341 | 67 | 143 | 0.0 | 10.0 | 0.00 | 0.00 | 0.00 | 72 | 1008.1 |
| 20260901223841 | 67 | 143 | 2.0 | 10.0 | 0.00 | 0.00 | 0.00 | 72 | 1008.0 |
| 20260901223341 | 67 | 133 | 0.0 | 0.0 | 0.00 | 0.00 | 0.00 | 72 | 1007.7 |
| 20260901222841 | 67 | 150 | 0.0 | 8.0 | 0.00 | 0.00 | 0.00 | 72 | 1008.0 |
| 20260901222340 | 67 | 135 | 0.0 | 8.0 | 0.00 | 0.00 | 0.00 | 72 | 1008.0 |
| 20260901221839 | 67 | 120 | 1.0 | 6.0 | 0.00 | 0.00 | 0.00 | 71 | 1007.8 |
| 20260901221341 | 67 | 133 | 0.0 | 1.0 | 0.00 | 0.00 | 0.00 | 73 | 1007.8 |
| 20260901221123 | 67 | 153 | 0.0 | 0.0 | 0.00 | 0.00 | 0.00 | 73 | 1007.9 |
| 20260901220341 | 67 | 150 | 0.0 | 0.0 | 0.00 | 0.00 | 0.00 | 72 | 1007.8 |
| 20260901215840 | 67 | 128 | 0.0 | 0.0 | 0.00 | 0.00 | 0.00 | 72 | 1008.0 |
| 20260901215340 | 67 | 132 | 0.0 | 0.0 | 0.00 | 0.00 | 0.00 | 72 | 1008.0 |
| 20260901214839 | 67 | 122 | 0.0 | 0.0 | 0.00 | 0.00 | 0.00 | 72 | 1007.8 |
| 20260901214433 | 67 | 123 | 0.0 | 0.0 | 0.00 | 0.00 | 0.00 | 72 | 1007.8 |
| 20260901213340 | 68 | 137 | 0.0 | 7.0 | 0.00 | 0.00 | 0.00 | 71 | 1008.2 |
| 20260901213124 | 68 | 149 | 0.0 | 7.0 | 0.00 | 0.00 | 0.00 | 70 | 1007.8 |
| 20260901212341 | 68 | 152 | 0.0 | 4.0 | 0.00 | 0.00 | 0.00 | 70 | 1008.1 |
| 20260901212152 | 68 | 151 | 0.0 | 3.0 | 0.00 | 0.00 | 0.00 | 69 | 1008.0 |
| 20260901211341 | 68 | 134 | 0.0 | 8.0 | 0.00 | 0.00 | 0.00 | 69 | 1007.8 |
| 20260901210839 | 69 | 124 | 2.0 | 8.0 | 0.00 | 0.00 | 0.00 | 68 | 1008.0 |
| 20260901210341 | 69 | 136 | 0.0 | 4.0 | 0.00 | 0.00 | 0.00 | 68 | 1007.9 |
| 20260901205841 | 69 | 140 | 0.0 | 8.0 | 0.00 | 0.00 | 0.00 | 69 | 1008.2 |
| 20260901205340 | 69 | 150 | 0.0 | 8.0 | 0.00 | 0.00 | 0.00 | 68 | 1007.9 |
| 20260901204841 | 69 | 142 | 0.0 | 8.0 | 0.00 | 0.00 | 0.00 | 69 | 1008.0 |
| 20260901204341 | 68 | 148 | 1.0 | 8.0 | 0.00 | 0.00 | 0.00 | 69 | 1008.2 |
| 20260901203841 | 68 | 126 | 1.0 | 8.0 | 0.00 | 0.00 | 0.00 | 70 | 1008.1 |
| 20260901203341 | 68 | 121 | 0.0 | 6.0 | 0.00 | 0.00 | 0.00 | 69 | 1008.3 |
| 20260901203134 | 68 | 141 | 0.0 | 6.0 | 0.00 | 0.00 | 0.00 | 70 | 1008.2 |
| 20260901202340 | 68 | 152 | 0.0 | 7.0 | 0.00 | 0.00 | 0.00 | 69 | 1008.3 |
| 20260901201840 | 68 | 155 | 1.0 | 8.0 | 0.00 | 0.00 | 0.00 | 69 | 1008.2 |
| 20260901201341 | 68 | 139 | 0.0 | 8.0 | 0.00 | 0.00 | 0.00 | 70 | 1008.3 |
| 20260901200841 | 68 | 128 | 0.0 | 3.0 | 0.00 | 0.00 | 0.00 | 69 | 1008.3 |
| 20260901200341 | 68 | 165 | 0.0 | 4.0 | 0.00 | 0.00 | 0.00 | 70 | 1008.4 |
| 20260901195840 | 67 | 151 | 0.0 | 6.0 | 0.00 | 0.00 | 0.00 | 71 | 1008.4 |
| 20260901195341 | 68 | 162 | 1.0 | 6.0 | 0.00 | 0.00 | 0.00 | 72 | 1008.6 |
| 20260901195148 | 67 | 147 | 0.0 | 6.0 | 0.00 | 0.00 | 0.00 | 73 | 1008.5 |
| 20260901194340 | 67 | 145 | 0.0 | 6.0 | 0.00 | 0.00 | 0.00 | 75 | 1008.2 |
| 20260901194131 | 66 | 142 | 0.0 | 4.0 | 0.00 | 0.00 | 0.00 | 75 | 1008.3 |
| 20260901193630 | 66 | 128 | 0.0 | 4.0 | 0.00 | 0.00 | 0.00 | 74 | 1008.3 |
| 20260901192840 | 66 | 151 | 0.0 | 8.0 | 0.00 | 0.00 | 0.00 | 75 | 1008.5 |
| 20260901192341 | 65 | 129 | 0.0 | 8.0 | 0.00 | 0.00 | 0.00 | 75 | 1008.3 |
| 20260901191840 | 65 | 131 | 0.0 | 2.0 | 0.00 | 0.00 | 0.00 | 75 | 1008.7 |
| 20260901191341 | 65 | 128 | 0.0 | 10.0 | 0.00 | 0.00 | 0.00 | 75 | 1008.4 |
| 20260901190841 | 65 | 144 | 1.0 | 10.0 | 0.00 | 0.00 | 0.00 | 77 | 1008.6 |
| 20260901190340 | 65 | 153 | 0.0 | 4.0 | 0.00 | 0.00 | 0.00 | 76 | 1008.5 |
| 20260901185842 | 64 | 144 | 1.0 | 4.0 | 0.00 | 0.00 | 0.00 | 78 | 1008.6 |
| 20260901185641 | 64 | 146 | 0.0 | 1.0 | 0.00 | 0.00 | 0.00 | 79 | 1008.8 |
| 20260901184840 | 64 | 146 | 0.0 | 3.0 | 0.00 | 0.00 | 0.00 | 80 | 1008.6 |
| 20260901184341 | 63 | 147 | 0.0 | 11.0 | 0.00 | 0.00 | 0.00 | 81 | 1008.7 |
| 20260901183841 | 63 | 147 | 1.0 | 11.0 | 0.00 | 0.00 | 0.00 | 81 | 1008.9 |
| 20260901183345 | 63 | 147 | 0.0 | 7.0 | 0.00 | 0.00 | 0.00 | 81 | 1008.7 |
| 20260901183130 | 63 | 151 | 0.0 | 2.0 | 0.00 | 0.00 | 0.00 | 81 | 1008.6 |
| 20260901182342 | 63 | 137 | 0.0 | 1.0 | 0.00 | 0.00 | 0.00 | 81 | 1008.8 |
| 20260901181846 | 62 | 150 | 0.0 | 1.0 | 0.00 | 0.00 | 0.00 | 82 | 1008.6 |
| 20260901181342 | 62 | 154 | 0.0 | 2.0 | 0.00 | 0.00 | 0.00 | 83 | 1008.6 |
| 20260901180840 | 62 | 143 | 1.0 | 10.0 | 0.00 | 0.00 | 0.00 | 83 | 1008.5 |
| 20260901180354 | 62 | 147 | 0.0 | 18.0 | 0.00 | 0.00 | 0.00 | 85 | 1008.4 |
| 20260901175839 | 61 | 133 | 2.0 | 18.0 | 0.00 | 0.00 | 0.00 | 85 | 1008.8 |
| 20260901175352 | 61 | 152 | 0.0 | 3.0 | 0.00 | 0.00 | 0.00 | 86 | 1008.8 |
| 20260901174853 | 61 | 150 | 0.0 | 3.0 | 0.00 | 0.00 | 0.00 | 86 | 1008.6 |
| 20260901174341 | 61 | 145 | 0.0 | 2.0 | 0.00 | 0.00 | 0.00 | 86 | 1008.6 |
| 20260901173840 | 61 | 132 | 0.0 | 10.0 | 0.00 | 0.00 | 0.00 | 86 | 1008.6 |
| 20260901173341 | 61 | 139 | 2.0 | 10.0 | 0.00 | 0.00 | 0.00 | 87 | 1008.2 |
| 20260901172841 | 60 | 146 | 0.0 | 11.0 | 0.00 | 0.00 | 0.00 | 87 | 1008.4 |
| 20260901172341 | 60 | 149 | 1.0 | 13.0 | 0.00 | 0.00 | 0.00 | 88 | 1008.5 |
| 20260901171840 | 60 | 141 | 1.0 | 13.0 | 0.00 | 0.00 | 0.00 | 87 | 1008.4 |
| 20260901171341 | 60 | 150 | 2.0 | 4.0 | 0.00 | 0.00 | 0.00 | 87 | 1008.6 |
| 20260901170852 | 60 | 145 | 0.0 | 4.0 | 0.00 | 0.00 | 0.00 | 88 | 1008.5 |
| 20260901170341 | 60 | 144 | 0.0 | 4.0 | 0.00 | 0.00 | 0.00 | 88 | 1008.3 |
| 20260901165839 | 60 | 140 | 0.0 | 10.0 | 0.00 | 0.00 | 0.00 | 88 | 1008.5 |
| 20260901165340 | 60 | 131 | 1.0 | 10.0 | 0.00 | 0.00 | 0.00 | 89 | 1008.4 |
| 20260901164841 | 60 | 131 | 0.0 | 6.0 | 0.00 | 0.00 | 0.00 | 89 | 1008.2 |
| 20260901164337 | 60 | 145 | 0.0 | 7.0 | 0.00 | 0.00 | 0.00 | 89 | 1008.4 |
| 20260901163836 | 60 | 154 | 0.0 | 10.0 | 0.00 | 0.00 | 0.00 | 89 | 1008.4 |